Alma, MI

10:02 AM EST on November 17, 2019 (GMT -0500)
Gratiot Community

Weather History for KAMN - May, 2019

Change the Weather History Date:

Monday, May 20, 2019

  Actual Average Record
Temperature  
Mean Temperature 52 °F -  
Max Temperature 59 °F 72 °F 92 °F (1977)
Min Temperature 45 °F 46 °F 32 °F (1997)
Degree Days  
Heating Degree Days 13    
Growing Degree Days 2 (Base 50)    
Moisture  
Dew Point 41 °F    
Average Humidity 68    
Maximum Humidity 76    
Minimum Humidity 54    
Precipitation  
Precipitation 0.00 in - - ()
Sea Level Pressure  
Sea Level Pressure 29.93 in    
Wind  
Wind Speed 11 mph (WNW)    
Max Wind Speed 17 mph    
Max Gust Speed 24 mph    
Visibility 10 miles    
Events      
Averages and records for this station are not official NWS values.
T = Trace of Precipitation, MM = Missing Value Source: NWS Daily Summary

Daily Weather History Graph

Daily Weather History Graph

Search for Another Location

Airport or City:

Astronomy

May. 20, 2019 Rise Set
Actual Time 6:09 AM EDT 9:01 PM EDT
Civil Twilight 5:36 AM EDT 9:34 PM EDT
Nautical Twilight 4:54 AM EDT 10:17 PM EDT
Astronomical Twilight 4:05 AM EDT 11:06 PM EDT
Moon 11:02 PM EDT (5/20) 7:37 AM EDT (5/20)
Length of Visible Light 15h 58m
Length of Day
14h 51m
Waning Gibbous, 96% of the Moon is Illuminated
May 20
Waning Gibbous
May 26
Last Quarter
Jun 3
New
Jun 10
First Quarter
Jun 17
Full

Hourly Weather History & Observations

Time (EDT) Temp. Windchill Dew Point Humidity Pressure Visibility Wind Dir Wind Speed Gust Speed Precip Events Conditions
12:15 AM 59.9 °F - 52.2 °F 76% 29.69 in 10.0 mi West 12.7 mph 18.4 mph N/A   Mostly Cloudy
12:35 AM 59.4 °F - 51.6 °F 76% 29.70 in 10.0 mi WSW 10.4 mph 17.3 mph N/A   Overcast
12:55 AM 58.5 °F - 49.1 °F 71% 29.70 in 10.0 mi West 11.5 mph 23.0 mph N/A   Overcast
1:15 AM 58.1 °F - 49.3 °F 72% 29.71 in 10.0 mi WSW 12.7 mph 17.3 mph N/A   Overcast
1:35 AM 57.2 °F - 47.3 °F 69% 29.71 in 10.0 mi West 10.4 mph 21.9 mph N/A   Scattered Clouds
1:55 AM 56.5 °F - 46.8 °F 70% 29.71 in 10.0 mi West 9.2 mph 20.7 mph N/A   Scattered Clouds
1:56 AM 56.3 °F - 46.8 °F 70% 29.71 in 10.0 mi WSW 10.4 mph 18.4 mph N/A   Scattered Clouds
2:15 AM 55.4 °F - 46.8 °F 73% 29.71 in 10.0 mi West 8.1 mph - N/A   Scattered Clouds
2:35 AM 54.9 °F - 46.6 °F 74% 29.71 in 10.0 mi West 6.9 mph - N/A   Scattered Clouds
2:36 AM 54.9 °F - 46.6 °F 74% 29.71 in 10.0 mi West 6.9 mph - N/A   Scattered Clouds
2:55 AM 55.2 °F - 46.4 °F 72% 29.73 in 10.0 mi WSW 16.1 mph - N/A   Overcast
2:56 AM 55.4 °F - 46.4 °F 72% 29.73 in 10.0 mi WSW 13.8 mph 18.4 mph N/A   Overcast
3:15 AM 55.0 °F - 46.4 °F 73% 29.73 in 10.0 mi WSW 13.8 mph 23.0 mph N/A   Overcast
3:35 AM 54.5 °F - 46.4 °F 74% 29.74 in 10.0 mi WSW 11.5 mph - N/A   Overcast
3:36 AM 54.5 °F - 46.6 °F 75% 29.74 in 10.0 mi WSW 11.5 mph - N/A   Overcast
3:55 AM 54.1 °F - 46.4 °F 75% 29.74 in 10.0 mi WSW 9.2 mph 17.3 mph N/A   Overcast
4:15 AM 54.0 °F - 45.3 °F 73% 29.74 in 10.0 mi West 15.0 mph 23.0 mph N/A   Overcast
4:16 AM 53.8 °F - 45.3 °F 73% 29.74 in 10.0 mi WSW 15.0 mph 23.0 mph N/A   Overcast
4:35 AM 53.6 °F - 45.0 °F 73% 29.75 in 10.0 mi West 11.5 mph 20.7 mph N/A   Overcast
4:55 AM 53.1 °F - 45.0 °F 74% 29.76 in 10.0 mi West 10.4 mph 19.6 mph N/A   Overcast
5:15 AM 51.4 °F - 43.3 °F 74% 29.77 in 10.0 mi West 15.0 mph 21.9 mph N/A   Overcast
5:16 AM 51.3 °F - 43.5 °F 75% 29.77 in 10.0 mi West 13.8 mph 21.9 mph N/A   Overcast
5:35 AM 50.2 °F - 42.8 °F 76% 29.78 in 10.0 mi West 11.5 mph 19.6 mph N/A   Overcast
5:36 AM 50.2 °F - 42.8 °F 76% 29.78 in 10.0 mi West 9.2 mph 19.6 mph N/A   Overcast
5:55 AM 50.0 °F - 42.4 °F 75% 29.79 in 10.0 mi West 11.5 mph - N/A   Overcast
5:56 AM 50.0 °F - 42.4 °F 75% 29.78 in 10.0 mi West 10.4 mph - N/A   Overcast
6:15 AM 49.8 °F - 41.9 °F 74% 29.79 in 10.0 mi West 15.0 mph 20.7 mph N/A   Overcast
6:16 AM 49.6 °F - 41.9 °F 75% 29.79 in 10.0 mi West 13.8 mph 20.7 mph N/A   Overcast
6:35 AM 48.9 °F - 40.1 °F 72% 29.81 in 10.0 mi West 15.0 mph 24.2 mph N/A   Overcast
6:36 AM 48.7 °F - 39.9 °F 72% 29.81 in 10.0 mi West 17.3 mph 24.2 mph N/A   Overcast
6:55 AM 48.2 °F - 39.2 °F 71% 29.81 in 10.0 mi West 13.8 mph 23.0 mph N/A   Overcast
6:56 AM 48.2 °F - 39.2 °F 71% 29.81 in 10.0 mi West 11.5 mph 23.0 mph N/A   Overcast
7:15 AM 48.2 °F - 39.4 °F 72% 29.82 in 10.0 mi West 12.7 mph - N/A   Overcast
7:35 AM 48.2 °F - 40.1 °F 74% 29.83 in 10.0 mi West 10.4 mph 17.3 mph N/A   Overcast
7:55 AM 48.2 °F - 39.7 °F 73% 29.84 in 10.0 mi West 12.7 mph 21.9 mph N/A   Overcast
8:15 AM 48.4 °F - 40.1 °F 73% 29.85 in 10.0 mi West 11.5 mph 23.0 mph N/A   Overcast
8:35 AM 48.6 °F - 39.9 °F 72% 29.85 in 10.0 mi West 12.7 mph 21.9 mph N/A   Overcast
8:55 AM 48.6 °F - 39.7 °F 72% 29.85 in 10.0 mi West 12.7 mph 19.6 mph N/A   Overcast
9:15 AM 48.7 °F - 40.8 °F 74% 29.86 in 10.0 mi WSW 12.7 mph 18.4 mph N/A   Overcast
9:16 AM 48.7 °F - 40.6 °F 74% 29.86 in 10.0 mi West 10.4 mph 18.4 mph N/A   Overcast
9:35 AM 48.6 °F - 40.5 °F 74% 29.87 in 10.0 mi West 15.0 mph 24.2 mph N/A   Overcast
9:36 AM 48.6 °F - 40.5 °F 74% 29.87 in 10.0 mi West 15.0 mph 24.2 mph N/A   Overcast
9:55 AM 49.3 °F - 40.1 °F 71% 29.88 in 10.0 mi West 15.0 mph 24.2 mph N/A   Overcast
9:56 AM 49.3 °F - 40.3 °F 71% 29.88 in 10.0 mi West 13.8 mph 24.2 mph N/A   Overcast
10:15 AM 49.6 °F - 40.6 °F 71% 29.89 in 10.0 mi WSW 15.0 mph 21.9 mph N/A   Overcast
10:16 AM 49.6 °F - 40.6 °F 71% 29.89 in 10.0 mi WSW 16.1 mph 21.9 mph N/A   Overcast
10:35 AM 49.8 °F - 41.0 °F 72% 29.90 in 10.0 mi WSW 15.0 mph 21.9 mph N/A   Overcast
10:55 AM 50.5 °F - 41.0 °F 70% 29.91 in 10.0 mi WSW 15.0 mph 18.4 mph N/A   Overcast
11:15 AM 50.0 °F - 40.6 °F 70% 29.92 in 10.0 mi West 12.7 mph - N/A   Overcast
11:35 AM 50.0 °F - 41.0 °F 71% 29.93 in 10.0 mi West 11.5 mph 17.3 mph N/A   Overcast
11:55 AM 49.6 °F - 41.2 °F 73% 29.94 in 10.0 mi WSW 15.0 mph 19.6 mph N/A   Overcast
11:56 AM 49.6 °F - 41.2 °F 73% 29.94 in 10.0 mi West 15.0 mph 19.6 mph N/A   Overcast
12:15 PM 49.8 °F - 40.8 °F 71% 29.95 in 10.0 mi West 16.1 mph - N/A   Overcast
12:35 PM 50.4 °F - 41.0 °F 70% 29.95 in 10.0 mi West 11.5 mph 16.1 mph N/A   Overcast
12:36 PM 50.4 °F - 40.8 °F 70% 29.95 in 10.0 mi West 10.4 mph 16.1 mph N/A   Overcast
12:55 PM 50.5 °F - 40.6 °F 69% 29.96 in 10.0 mi West 11.5 mph 21.9 mph N/A   Overcast
12:56 PM 50.5 °F - 40.8 °F 69% 29.96 in 10.0 mi West 10.4 mph 21.9 mph N/A   Overcast
1:15 PM 51.3 °F - 40.8 °F 67% 29.96 in 10.0 mi WNW 9.2 mph - N/A   Overcast
1:16 PM 51.3 °F - 40.8 °F 67% 29.96 in 10.0 mi West 9.2 mph - N/A   Overcast
1:35 PM 51.8 °F - 41.2 °F 67% 29.96 in 10.0 mi West 11.5 mph - N/A   Overcast
1:36 PM 51.8 °F - 41.2 °F 67% 29.96 in 10.0 mi West 13.8 mph 17.3 mph N/A   Overcast
1:55 PM 51.4 °F - 40.5 °F 66% 29.98 in 10.0 mi West 13.8 mph 17.3 mph N/A   Overcast
2:15 PM 52.0 °F - 41.2 °F 67% 30.00 in 10.0 mi WNW 11.5 mph 18.4 mph N/A   Overcast
2:16 PM 52.0 °F - 41.2 °F 67% 30.00 in 10.0 mi WNW 11.5 mph 18.4 mph N/A   Overcast
2:35 PM 51.4 °F - 40.6 °F 67% 29.99 in 10.0 mi WNW 11.5 mph 17.3 mph N/A   Overcast
2:55 PM 52.2 °F - 40.8 °F 65% 30.00 in 10.0 mi NW 10.4 mph 16.1 mph N/A   Overcast
2:56 PM 52.3 °F - 41.0 °F 65% 30.00 in 10.0 mi NW 10.4 mph 16.1 mph N/A   Overcast
3:15 PM 52.5 °F - 41.0 °F 65% 30.02 in 10.0 mi West 11.5 mph 17.3 mph N/A   Overcast
3:35 PM 52.0 °F - 40.5 °F 65% 30.03 in 10.0 mi NW 10.4 mph - N/A   Overcast
3:55 PM 52.3 °F - 41.0 °F 65% 30.03 in 10.0 mi WNW 9.2 mph 16.1 mph N/A   Overcast
4:15 PM 52.7 °F - 40.3 °F 63% 30.02 in 10.0 mi WNW 12.7 mph - N/A   Overcast
4:35 PM 53.2 °F - 40.6 °F 62% 30.03 in 10.0 mi WNW 9.2 mph 17.3 mph N/A   Overcast
4:55 PM 52.7 °F - 40.1 °F 62% 30.05 in 10.0 mi WNW 9.2 mph - N/A   Overcast
5:15 PM 53.4 °F - 40.1 °F 61% 30.06 in 10.0 mi NNW 12.7 mph 16.1 mph N/A   Overcast
5:16 PM 53.4 °F - 39.9 °F 60% 30.06 in 10.0 mi NNW 11.5 mph 16.1 mph N/A   Overcast
5:35 PM 53.6 °F - 39.7 °F 59% 30.06 in 10.0 mi NNW 10.4 mph 17.3 mph N/A   Overcast
5:36 PM 53.6 °F - 39.7 °F 59% 30.06 in 10.0 mi NNW 10.4 mph - N/A   Overcast
5:55 PM 53.8 °F - 39.9 °F 59% 30.06 in 10.0 mi NNW 9.2 mph 16.1 mph N/A   Overcast
5:56 PM 53.8 °F - 39.9 °F 59% 30.06 in 10.0 mi NNW 10.4 mph 16.1 mph N/A   Overcast
6:15 PM 53.8 °F - 39.6 °F 59% 30.07 in 10.0 mi NNW 8.1 mph 17.3 mph N/A   Overcast
6:35 PM 54.7 °F - 38.3 °F 54% 30.07 in 10.0 mi NNW 11.5 mph 16.1 mph N/A   Mostly Cloudy
6:36 PM 54.9 °F - 38.3 °F 54% 30.07 in 10.0 mi NNW 10.4 mph 16.1 mph N/A   Mostly Cloudy
6:55 PM 52.9 °F - 37.0 °F 55% 30.08 in 10.0 mi NNW 8.1 mph - N/A   Scattered Clouds
6:56 PM 52.9 °F - 37.0 °F 55% 30.07 in 10.0 mi NNW 8.1 mph - N/A   Scattered Clouds
7:15 PM 53.6 °F - 37.9 °F 55% 30.09 in 10.0 mi NW 4.6 mph - N/A   Scattered Clouds
7:35 PM 54.3 °F - 38.3 °F 55% 30.09 in 10.0 mi NNW 4.6 mph - N/A   Scattered Clouds
7:36 PM 54.3 °F - 38.5 °F 55% 30.09 in 10.0 mi NNW 4.6 mph - N/A   Scattered Clouds
7:55 PM 54.0 °F - 38.3 °F 55% 30.09 in 10.0 mi Calm Calm - N/A   Scattered Clouds
7:56 PM 54.0 °F - 38.3 °F 55% 30.10 in 10.0 mi NW 3.5 mph - N/A   Scattered Clouds
8:15 PM 54.1 °F - 38.3 °F 55% 30.11 in 10.0 mi NW 3.5 mph - N/A   Mostly Cloudy
8:16 PM 54.1 °F - 38.3 °F 55% 30.11 in 10.0 mi NNW 3.5 mph - N/A   Mostly Cloudy
8:35 PM 52.7 °F - 38.5 °F 58% 30.11 in 10.0 mi WNW 5.8 mph - N/A   Scattered Clouds
8:55 PM 51.1 °F - 36.9 °F 58% 30.11 in 10.0 mi NNW 5.8 mph - N/A   Scattered Clouds
9:15 PM 50.4 °F - 35.8 °F 57% 30.11 in 10.0 mi NNW 6.9 mph - N/A   Clear
9:35 PM 48.9 °F - 36.0 °F 61% 30.11 in 10.0 mi NNW 4.6 mph - N/A   Clear
9:55 PM 48.2 °F - 36.0 °F 63% 30.12 in 10.0 mi NNW 4.6 mph - N/A   Clear
9:56 PM 48.0 °F - 36.1 °F 63% 30.12 in 10.0 mi NNW 5.8 mph - N/A   Clear
10:15 PM 46.9 °F - 36.5 °F 67% 30.12 in 10.0 mi NNW 4.6 mph - N/A   Clear
10:16 PM 46.9 °F - 36.3 °F 67% 30.12 in 10.0 mi NNW 4.6 mph - N/A   Clear
10:35 PM 46.6 °F - 36.7 °F 68% 30.13 in 10.0 mi NNW 5.8 mph - N/A   Clear
10:36 PM 46.6 °F - 36.7 °F 68% 30.13 in 10.0 mi NNW 5.8 mph - N/A   Clear
10:55 PM 46.0 °F 43.1 °F 36.7 °F 70% 30.13 in 10.0 mi NNW 5.8 mph - N/A   Clear
10:56 PM 46.0 °F 43.1 °F 36.7 °F 70% 30.13 in 10.0 mi NNW 5.8 mph - N/A   Clear
11:15 PM 46.0 °F 43.9 °F 36.5 °F 69% 30.14 in 10.0 mi NNW 4.6 mph - N/A   Clear
11:16 PM 45.9 °F 42.9 °F 36.5 °F 70% 30.14 in 10.0 mi NNW 5.8 mph - N/A   Clear
11:35 PM 45.9 °F 44.6 °F 36.3 °F 69% 30.14 in 10.0 mi NNW 3.5 mph - N/A   Clear
11:36 PM 45.9 °F 44.6 °F 36.3 °F 69% 30.14 in 10.0 mi NNW 3.5 mph - N/A   Clear
11:55 PM 45.5 °F 44.2 °F 36.1 °F 70% 30.15 in 10.0 mi NW 3.5 mph - N/A   Clear